owner,sensor,date,latitude,longitude,vertical_datum,wind_speed,wind_to_direction,wind_speed_of_gust,qcFlag 
TABS,ioos:station:wmo:42046:1,2009-11-01T00:00:00Z,27.8903,-94.0367,4.0,6.734656636,351.4606304,8.53,'11111222,11111222,11111222' 
TABS,ioos:station:wmo:42046:1,2009-11-01T00:30:00Z,27.8903,-94.0367,4.0,6.402725982,352.6417015,8.41,'11111222,11111222,11111222' 
TABS,ioos:station:wmo:42046:1,2009-11-01T01:00:00Z,27.8903,-94.0367,4.0,6.031624988,351.8025367,8.06,'11111222,11111222,11111222' 
TABS,ioos:station:wmo:42046:1,2009-11-01T01:30:00Z,27.8903,-94.0367,4.0,6.276854308,5.301640677,8.41,'11111222,11111222,11111222' 
TABS,ioos:station:wmo:42046:1,2009-11-01T02:00:00Z,27.8903,-94.0367,4.0,6.612450378,1.559648553,8.56,'11111222,11111222,11111222' 
TABS,ioos:station:wmo:42046:1,2009-11-01T02:30:00Z,27.8903,-94.0367,4.0,6.315773903,2.449931115,8.83,'11111222,11111222,11111222' 
TABS,ioos:station:wmo:42046:1,2009-11-01T03:00:00Z,27.8903,-94.0367,4.0,6.18540217,5.194206302,7.63,'11111222,11111222,11111222' 
TABS,ioos:station:wmo:42046:1,2009-11-01T03:30:00Z,27.8903,-94.0367,4.0,6.089466315,9.83333051,7.89,'11111222,11111222,11111222' 
TABS,ioos:station:wmo:42046:1,2009-11-01T04:00:00Z,27.8903,-94.0367,4.0,4.623526792,19.06170875,6.58,'11111222,11111222,11111222' 
TABS,ioos:station:wmo:42046:1,2009-11-01T04:30:00Z,27.8903,-94.0367,4.0,5.099274458,29.22894046,7.23,'11111222,11111222,11111222' 
TABS,ioos:station:wmo:42046:1,2009-11-01T05:00:00Z,27.8903,-94.0367,4.0,4.838388161,18.06021924,7.3,'11111222,11111222,11111222' 
TABS,ioos:station:wmo:42046:1,2009-11-01T05:30:00Z,27.8903,-94.0367,4.0,5.066014212,16.39567404,6.91,'11111222,11111222,11111222' 
TABS,ioos:station:wmo:42046:1,2009-11-01T06:00:00Z,27.8903,-94.0367,4.0,5.64030141,20.87680065,7.59,'11111222,11111222,11111222' 
TABS,ioos:station:wmo:42046:1,2009-11-01T06:30:00Z,27.8903,-94.0367,4.0,5.022270403,31.98091233,7.97,'11111222,11111222,11111222' 
TABS,ioos:station:wmo:42046:1,2009-11-01T07:00:00Z,27.8903,-94.0367,4.0,5.153794718,38.3817125,6.99,'11111222,11111222,11111222' 
TABS,ioos:station:wmo:42046:1,2009-11-01T07:30:00Z,27.8903,-94.0367,4.0,5.449596315,41.20539939,7.06,'11111222,11111222,11111222' 
TABS,ioos:station:wmo:42046:1,2009-11-01T08:00:00Z,27.8903,-94.0367,4.0,5.688980577,18.65763439,7.67,'11111222,11111222,11111222' 
TABS,ioos:station:wmo:42046:1,2009-11-01T08:30:00Z,27.8903,-94.0367,4.0,5.488934323,15.85911872,7.42,'11111222,11111222,11111222' 
TABS,ioos:station:wmo:42046:1,2009-11-01T09:00:00Z,27.8903,-94.0367,4.0,5.660830328,40.41435914,7.51,'11111222,11111222,11111222' 
TABS,ioos:station:wmo:42046:1,2009-11-01T09:30:00Z,27.8903,-94.0367,4.0,5.326030417,52.93612933,6.95,'11111222,11111222,11111222' 
TABS,ioos:station:wmo:42046:1,2009-11-01T10:00:00Z,27.8903,-94.0367,4.0,5.005486989,38.26622053,6.71,'11111222,11111222,11111222' 
TABS,ioos:station:wmo:42046:1,2009-11-01T10:30:00Z,27.8903,-94.0367,4.0,5.716117564,49.39837938,7.83,'11111222,11111222,11111222' 
TABS,ioos:station:wmo:42046:1,2009-11-01T11:00:00Z,27.8903,-94.0367,4.0,5.614588142,45.43264065,7.77,'11111222,11111222,11111222' 
TABS,ioos:station:wmo:42046:1,2009-11-01T11:30:00Z,27.8903,-94.0367,4.0,5.565042677,44.63567621,7.38,'11111222,11111222,11111222' 
TABS,ioos:station:wmo:42046:1,2009-11-01T12:00:00Z,27.8903,-94.0367,4.0,5.837876326,51.67707088,7.4,'11111222,11111222,11111222' 
TABS,ioos:station:wmo:42046:1,2009-11-01T12:30:00Z,27.8903,-94.0367,4.0,5.96487217,52.14995777,7.95,'11111222,11111222,11111222' 
TABS,ioos:station:wmo:42046:1,2009-11-01T13:00:00Z,27.8903,-94.0367,4.0,6.481049298,47.00046525,8.15,'11111222,11111222,11111222' 
TABS,ioos:station:wmo:42046:1,2009-11-01T13:30:00Z,27.8903,-94.0367,4.0,5.47014625,53.54874114,7.68,'11111222,11111222,11111222' 
TABS,ioos:station:wmo:42046:1,2009-11-01T14:00:00Z,27.8903,-94.0367,4.0,6.214000322,64.96046308,8.01,'11111222,11111222,11111222' 
TABS,ioos:station:wmo:42046:1,2009-11-01T14:30:00Z,27.8903,-94.0367,4.0,6.164478891,64.84798392,7.9,'11111222,11111222,11111222' 
TABS,ioos:station:wmo:42046:1,2009-11-01T15:00:00Z,27.8903,-94.0367,4.0,5.272048938,68.64220753,7.52,'11111222,11111222,11111222' 
TABS,ioos:station:wmo:42046:1,2009-11-01T15:30:00Z,27.8903,-94.0367,4.0,5.25178065,59.82174284,6.84,'11111222,11111222,11111222' 
TABS,ioos:station:wmo:42046:1,2009-11-01T16:00:00Z,27.8903,-94.0367,4.0,4.674922459,60.52839795,7.17,'11111222,11111222,11111222' 
TABS,ioos:station:wmo:42046:1,2009-11-01T16:30:00Z,27.8903,-94.0367,4.0,5.470740352,54.07238975,7.24,'11111222,11111222,11111222' 
TABS,ioos:station:wmo:42046:1,2009-11-01T17:00:00Z,27.8903,-94.0367,4.0,5.245073879,73.15389156,6.77,'11111222,11111222,11111222' 
TABS,ioos:station:wmo:42046:1,2009-11-01T17:30:00Z,27.8903,-94.0367,4.0,5.143393821,64.18188216,7.33,'11111222,11111222,11111222' 
TABS,ioos:station:wmo:42046:1,2009-11-01T18:00:00Z,27.8903,-94.0367,4.0,4.69282431,64.90898559,6.15,'11111222,11111222,11111222' 
TABS,ioos:station:wmo:42046:1,2009-11-01T18:30:00Z,27.8903,-94.0367,4.0,4.126802636,71.78419584,6.02,'11111222,11111222,11111222' 
TABS,ioos:station:wmo:42046:1,2009-11-01T19:00:00Z,27.8903,-94.0367,4.0,4.44518841,65.9717103,6.75,'11111222,11111222,11111222' 
TABS,ioos:station:wmo:42046:1,2009-11-01T19:30:00Z,27.8903,-94.0367,4.0,4.239339571,69.85486332,6.36,'11111222,11111222,11111222' 
TABS,ioos:station:wmo:42046:1,2009-11-01T20:00:00Z,27.8903,-94.0367,4.0,3.856241694,60.31005421,4.98,'11111222,11111222,11111222' 
TABS,ioos:station:wmo:42046:1,2009-11-01T20:30:00Z,27.8903,-94.0367,4.0,3.567534162,68.97364787,4.88,'11111222,11111222,11111222' 
TABS,ioos:station:wmo:42046:1,2009-11-01T21:00:00Z,27.8903,-94.0367,4.0,3.126227759,62.7788745,4.92,'11111222,11111222,11111222' 
TABS,ioos:station:wmo:42046:1,2009-11-01T21:30:00Z,27.8903,-94.0367,4.0,3.450579661,48.64192629,5.11,'11111222,11111222,11111222' 
TABS,ioos:station:wmo:42046:1,2009-11-01T22:00:00Z,27.8903,-94.0367,4.0,3.154060874,55.20110579,4.36,'11111222,11111222,11111222' 
TABS,ioos:station:wmo:42046:1,2009-11-01T22:30:00Z,27.8903,-94.0367,4.0,3.452187712,52.5322681,4.95,'11111222,11111222,11111222' 
TABS,ioos:station:wmo:42046:1,2009-11-01T23:00:00Z,27.8903,-94.0367,4.0,2.727196363,50.35549683,5.64,'11111222,11111222,11111222' 
TABS,ioos:station:wmo:42046:1,2009-11-01T23:30:00Z,27.8903,-94.0367,4.0,2.975583976,50.31737034,4.71,'11111222,11111222,11111222' 
TABS,ioos:station:wmo:42046:1,2009-11-02T00:00:00Z,27.8903,-94.0367,4.0,3.226716597,51.92222673,5.56,'11111222,11111222,11111222' 
TABS,ioos:station:wmo:42046:1,2009-11-02T00:30:00Z,27.8903,-94.0367,4.0,4.120012136,52.99070083,6.05,'11111222,11111222,11111222' 
TABS,ioos:station:wmo:42046:1,2009-11-02T01:00:00Z,27.8903,-94.0367,4.0,4.405564663,64.30704511,5.64,'11111222,11111222,11111222' 
TABS,ioos:station:wmo:42046:1,2009-11-02T01:30:00Z,27.8903,-94.0367,4.0,4.547724706,68.45556964,6.15,'11111222,11111222,11111222' 
TABS,ioos:station:wmo:42046:1,2009-11-02T02:00:00Z,27.8903,-94.0367,4.0,4.094203219,61.55671697,5.87,'11111222,11111222,11111222' 
TABS,ioos:station:wmo:42046:1,2009-11-02T02:30:00Z,27.8903,-94.0367,4.0,4.438490734,53.98178069,5.93,'11111222,11111222,11111222' 
TABS,ioos:station:wmo:42046:1,2009-11-02T03:00:00Z,27.8903,-94.0367,4.0,4.93447059,55.56887846,7.32,'11111222,11111222,11111222' 
TABS,ioos:station:wmo:42046:1,2009-11-02T03:30:00Z,27.8903,-94.0367,4.0,4.419321215,76.6551593,6.14,'11111222,11111222,11111222' 
TABS,ioos:station:wmo:42046:1,2009-11-02T04:00:00Z,27.8903,-94.0367,4.0,4.742699653,56.17556568,7.02,'11111222,11111222,11111222' 
TABS,ioos:station:wmo:42046:1,2009-11-02T04:30:00Z,27.8903,-94.0367,4.0,5.23138605,70.45631064,6.9,'11111222,11111222,11111222' 
TABS,ioos:station:wmo:42046:1,2009-11-02T05:00:00Z,27.8903,-94.0367,4.0,4.831821603,75.12930401,6.94,'11111222,11111222,11111222' 
TABS,ioos:station:wmo:42046:1,2009-11-02T05:30:00Z,27.8903,-94.0367,4.0,5.215524902,64.56463202,7.93,'11111222,11111222,11111222' 
TABS,ioos:station:wmo:42046:1,2009-11-02T06:00:00Z,27.8903,-94.0367,4.0,5.315044685,68.9388987,6.61,'11111222,11111222,11111222' 
TABS,ioos:station:wmo:42046:1,2009-11-02T06:30:00Z,27.8903,-94.0367,4.0,5.578566124,68.77039509,7.62,'11111222,11111222,11111222' 
TABS,ioos:station:wmo:42046:1,2009-11-02T07:00:00Z,27.8903,-94.0367,4.0,5.101578187,70.53467044,6.96,'11111222,11111222,11111222' 
TABS,ioos:station:wmo:42046:1,2009-11-02T07:30:00Z,27.8903,-94.0367,4.0,4.782854796,65.14919556,6.76,'11111222,11111222,11111222' 
TABS,ioos:station:wmo:42046:1,2009-11-02T08:00:00Z,27.8903,-94.0367,4.0,5.346494178,61.75695448,7.66,'11111222,11111222,11111222' 
TABS,ioos:station:wmo:42046:1,2009-11-02T08:30:00Z,27.8903,-94.0367,4.0,4.842323822,65.60464372,6.72,'11111222,11111222,11111222' 
TABS,ioos:station:wmo:42046:1,2009-11-02T09:00:00Z,27.8903,-94.0367,4.0,5.333216665,68.43761603,6.74,'11111222,11111222,11111222' 
TABS,ioos:station:wmo:42046:1,2009-11-02T09:30:00Z,27.8903,-94.0367,4.0,5.379981413,63.38696273,7.14,'11111222,11111222,11111222' 
TABS,ioos:station:wmo:42046:1,2009-11-02T10:00:00Z,27.8903,-94.0367,4.0,5.070009862,53.01675864,7.83,'11111222,11111222,11111222' 
TABS,ioos:station:wmo:42046:1,2009-11-02T10:30:00Z,27.8903,-94.0367,4.0,4.887535166,61.12722242,6.7,'11111222,11111222,11111222' 
TABS,ioos:station:wmo:42046:1,2009-11-02T11:00:00Z,27.8903,-94.0367,4.0,4.673349976,56.34359369,6.94,'11111222,11111222,11111222' 
TABS,ioos:station:wmo:42046:1,2009-11-02T11:30:00Z,27.8903,-94.0367,4.0,5.122352975,64.9354426,6.52,'11111222,11111222,11111222' 
TABS,ioos:station:wmo:42046:1,2009-11-02T12:00:00Z,27.8903,-94.0367,4.0,5.039623002,55.83660456,6.97,'11111222,11111222,11111222' 
TABS,ioos:station:wmo:42046:1,2009-11-02T12:30:00Z,27.8903,-94.0367,4.0,5.616422349,56.62082288,7.6,'11111222,11111222,11111222' 
TABS,ioos:station:wmo:42046:1,2009-11-02T13:00:00Z,27.8903,-94.0367,4.0,5.702359161,53.77283453,8.05,'11111222,11111222,11111222' 
TABS,ioos:station:wmo:42046:1,2009-11-02T13:30:00Z,27.8903,-94.0367,4.0,5.758515434,55.39889811,7.41,'11111222,11111222,11111222' 
TABS,ioos:station:wmo:42046:1,2009-11-02T14:00:00Z,27.8903,-94.0367,4.0,5.129775824,41.36423986,6.32,'11111222,11111222,11111222' 
TABS,ioos:station:wmo:42046:1,2009-11-02T14:30:00Z,27.8903,-94.0367,4.0,5.166372035,36.18199751,6.66,'11111222,11111222,11111222' 
TABS,ioos:station:wmo:42046:1,2009-11-02T15:00:00Z,27.8903,-94.0367,4.0,5.026420197,28.91039491,6.76,'11111222,11111222,11111222' 
TABS,ioos:station:wmo:42046:1,2009-11-02T15:30:00Z,27.8903,-94.0367,4.0,4.971941271,41.7385015,7.07,'11111222,11111222,11111222' 
TABS,ioos:station:wmo:42046:1,2009-11-02T16:00:00Z,27.8903,-94.0367,4.0,4.888598981,39.35507531,7.17,'11111222,11111222,11111222' 
TABS,ioos:station:wmo:42046:1,2009-11-02T16:30:00Z,27.8903,-94.0367,4.0,4.78131781,25.6536992,6.77,'11111222,11111222,11111222' 
TABS,ioos:station:wmo:42046:1,2009-11-02T17:00:00Z,27.8903,-94.0367,4.0,4.990961831,23.12295668,6.67,'11111222,11111222,11111222' 
TABS,ioos:station:wmo:42046:1,2009-11-02T17:30:00Z,27.8903,-94.0367,4.0,4.348907909,23.4405161,5.6,'11111222,11111222,11111222' 
TABS,ioos:station:wmo:42046:1,2009-11-02T18:00:00Z,27.8903,-94.0367,4.0,4.693655292,17.3537736,6.41,'11111222,11111222,11111222' 
TABS,ioos:station:wmo:42046:1,2009-11-02T18:30:00Z,27.8903,-94.0367,4.0,4.895794113,19.32292867,6.72,'11111222,11111222,11111222' 
TABS,ioos:station:wmo:42046:1,2009-11-02T19:00:00Z,27.8903,-94.0367,4.0,5.265823772,10.94693469,6.86,'11111222,11111222,11111222' 
TABS,ioos:station:wmo:42046:1,2009-11-02T19:30:00Z,27.8903,-94.0367,4.0,5.254493315,24.27222488,7.33,'11111222,11111222,11111222' 
TABS,ioos:station:wmo:42046:1,2009-11-02T20:00:00Z,27.8903,-94.0367,4.0,5.268415322,18.70982229,6.8,'11111222,11111222,11111222' 
TABS,ioos:station:wmo:42046:1,2009-11-02T20:30:00Z,27.8903,-94.0367,4.0,5.545637925,15.26393404,6.86,'11111222,11111222,11111222' 
TABS,ioos:station:wmo:42046:1,2009-11-02T21:00:00Z,27.8903,-94.0367,4.0,5.53336245,16.69899473,6.98,'11111222,11111222,11111222' 
TABS,ioos:station:wmo:42046:1,2009-11-02T21:30:00Z,27.8903,-94.0367,4.0,5.627654929,19.94805617,6.99,'11111222,11111222,11111222' 
TABS,ioos:station:wmo:42046:1,2009-11-02T22:00:00Z,27.8903,-94.0367,4.0,5.509736836,17.31655252,7.95,'11111222,11111222,11111222' 
TABS,ioos:station:wmo:42046:1,2009-11-02T22:30:00Z,27.8903,-94.0367,4.0,5.922339065,25.39652479,7.91,'11111222,11111222,11111222' 
TABS,ioos:station:wmo:42046:1,2009-11-02T23:00:00Z,27.8903,-94.0367,4.0,5.188227057,35.19076457,7.11,'11111222,11111222,11111222' 
TABS,ioos:station:wmo:42046:1,2009-11-02T23:30:00Z,27.8903,-94.0367,4.0,5.416133307,37.27159484,7.35,'11111222,11111222,11111222' 
TABS,ioos:station:wmo:42046:1,2009-11-03T00:00:00Z,27.8903,-94.0367,4.0,5.500481797,34.55651467,6.82,'11111222,11111222,11111222' 
TABS,ioos:station:wmo:42046:1,2009-11-03T00:30:00Z,27.8903,-94.0367,4.0,6.389968701,47.21933467,8.48,'11111222,11111222,11111222' 
TABS,ioos:station:wmo:42046:1,2009-11-03T01:00:00Z,27.8903,-94.0367,4.0,6.143850584,48.76111299,7.6,'11111222,11111222,11111222' 
TABS,ioos:station:wmo:42046:1,2009-11-03T01:30:00Z,27.8903,-94.0367,4.0,6.263074325,52.06851968,7.88,'11111222,11111222,11111222' 
TABS,ioos:station:wmo:42046:1,2009-11-03T02:00:00Z,27.8903,-94.0367,4.0,6.530275645,53.65620594,8.11,'11111222,11111222,11111222' 
TABS,ioos:station:wmo:42046:1,2009-11-03T02:30:00Z,27.8903,-94.0367,4.0,6.400351553,57.70010884,7.99,'11111222,11111222,11111222' 
TABS,ioos:station:wmo:42046:1,2009-11-03T03:00:00Z,27.8903,-94.0367,4.0,6.539120736,54.89996924,8.12,'11111222,11111222,11111222' 
TABS,ioos:station:wmo:42046:1,2009-11-03T03:30:00Z,27.8903,-94.0367,4.0,6.646773653,64.51405722,8.5,'11111222,11111222,11111222' 
TABS,ioos:station:wmo:42046:1,2009-11-03T04:00:00Z,27.8903,-94.0367,4.0,6.852306181,45.65007134,8.19,'11111222,11111222,11111222' 
TABS,ioos:station:wmo:42046:1,2009-11-03T04:30:00Z,27.8903,-94.0367,4.0,6.572160984,52.72873956,8.99,'11111222,11111222,11111222' 
TABS,ioos:station:wmo:42046:1,2009-11-03T05:00:00Z,27.8903,-94.0367,4.0,6.322001265,53.16601924,8.03,'11111222,11111222,11111222' 
TABS,ioos:station:wmo:42046:1,2009-11-03T05:30:00Z,27.8903,-94.0367,4.0,6.264990024,58.64378744,8.36,'11111222,11111222,11111222' 
TABS,ioos:station:wmo:42046:1,2009-11-03T06:00:00Z,27.8903,-94.0367,4.0,6.286183262,44.93523479,8.06,'11111222,11111222,11111222' 
TABS,ioos:station:wmo:42046:1,2009-11-03T06:30:00Z,27.8903,-94.0367,4.0,5.667680301,51.73456183,7.62,'11111222,11111222,11111222' 
TABS,ioos:station:wmo:42046:1,2009-11-03T07:00:00Z,27.8903,-94.0367,4.0,5.52641837,52.42475367,7.17,'11111222,11111222,11111222' 
TABS,ioos:station:wmo:42046:1,2009-11-03T07:30:00Z,27.8903,-94.0367,4.0,5.789386841,51.16984498,7.3,'11111222,11111222,11111222' 
TABS,ioos:station:wmo:42046:1,2009-11-03T08:00:00Z,27.8903,-94.0367,4.0,5.708117028,58.17514773,8.15,'11111222,11111222,11111222' 
TABS,ioos:station:wmo:42046:1,2009-11-03T08:30:00Z,27.8903,-94.0367,4.0,6.181537026,49.06661325,8.07,'11111222,11111222,11111222' 
TABS,ioos:station:wmo:42046:1,2009-11-03T09:00:00Z,27.8903,-94.0367,4.0,5.800215513,53.6236834,7.3,'11111222,11111222,11111222' 
TABS,ioos:station:wmo:42046:1,2009-11-03T09:30:00Z,27.8903,-94.0367,4.0,5.495061419,54.25592944,7.49,'11111222,11111222,11111222' 
TABS,ioos:station:wmo:42046:1,2009-11-03T10:00:00Z,27.8903,-94.0367,4.0,5.459496314,48.0436673,6.67,'11111222,11111222,11111222' 
TABS,ioos:station:wmo:42046:1,2009-11-03T10:30:00Z,27.8903,-94.0367,4.0,5.533190761,56.0511155,7.59,'11111222,11111222,11111222' 
TABS,ioos:station:wmo:42046:1,2009-11-03T11:00:00Z,27.8903,-94.0367,4.0,5.66961198,49.79298635,7.28,'11111222,11111222,11111222' 
TABS,ioos:station:wmo:42046:1,2009-11-03T11:30:00Z,27.8903,-94.0367,4.0,5.752721095,39.63948938,7.28,'11111222,11111222,11111222' 
TABS,ioos:station:wmo:42046:1,2009-11-03T12:00:00Z,27.8903,-94.0367,4.0,5.793142498,49.26964944,7.8,'11111222,11111222,11111222' 
TABS,ioos:station:wmo:42046:1,2009-11-03T12:30:00Z,27.8903,-94.0367,4.0,6.211803281,48.32783788,8.13,'11111222,11111222,11111222' 
TABS,ioos:station:wmo:42046:1,2009-11-03T13:00:00Z,27.8903,-94.0367,4.0,6.841052551,37.87468462,8.54,'11111222,11111222,11111222' 
TABS,ioos:station:wmo:42046:1,2009-11-03T13:30:00Z,27.8903,-94.0367,4.0,6.876801582,46.88527967,8.52,'11111222,11111222,11111222' 
TABS,ioos:station:wmo:42046:1,2009-11-03T14:00:00Z,27.8903,-94.0367,4.0,6.798889615,50.55017112,8.56,'11111222,11111222,11111222' 
TABS,ioos:station:wmo:42046:1,2009-11-03T14:30:00Z,27.8903,-94.0367,4.0,7.210943073,54.76679472,8.74,'11111222,11111222,11111222' 
TABS,ioos:station:wmo:42046:1,2009-11-03T15:00:00Z,27.8903,-94.0367,4.0,6.890065312,53.37923914,8.61,'11111222,11111222,11111222' 
TABS,ioos:station:wmo:42046:1,2009-11-03T15:30:00Z,27.8903,-94.0367,4.0,7.171757107,49.58035223,8.93,'11111222,11111222,11111222' 
TABS,ioos:station:wmo:42046:1,2009-11-03T16:00:00Z,27.8903,-94.0367,4.0,7.04716255,52.08903021,8.79,'11111222,11111222,11111222' 
TABS,ioos:station:wmo:42046:1,2009-11-03T16:30:00Z,27.8903,-94.0367,4.0,6.839707596,59.61055618,8.73,'11111222,11111222,11111222' 
TABS,ioos:station:wmo:42046:1,2009-11-03T17:00:00Z,27.8903,-94.0367,4.0,7.459497302,49.94824073,9.48,'11111222,11111222,11111222' 
TABS,ioos:station:wmo:42046:1,2009-11-03T17:30:00Z,27.8903,-94.0367,4.0,7.148706177,58.26613414,8.53,'11111222,11111222,11111222' 
TABS,ioos:station:wmo:42046:1,2009-11-03T18:00:00Z,27.8903,-94.0367,4.0,7.494050974,56.09754229,9.16,'11111222,11111222,11111222' 
TABS,ioos:station:wmo:42046:1,2009-11-03T18:30:00Z,27.8903,-94.0367,4.0,6.956320867,59.60092245,8.83,'11111222,11111222,11111222' 
TABS,ioos:station:wmo:42046:1,2009-11-03T19:00:00Z,27.8903,-94.0367,4.0,6.581739892,72.58327766,7.91,'11111222,11111222,11111222' 
TABS,ioos:station:wmo:42046:1,2009-11-03T19:30:00Z,27.8903,-94.0367,4.0,6.507595562,69.11382646,8.08,'11111222,11111222,11111222' 
TABS,ioos:station:wmo:42046:1,2009-11-03T20:00:00Z,27.8903,-94.0367,4.0,6.083954306,60.02114725,7.48,'11111222,11111222,11111222' 
TABS,ioos:station:wmo:42046:1,2009-11-03T20:30:00Z,27.8903,-94.0367,4.0,5.923681288,68.19822058,7.98,'11111222,11111222,11111222' 
TABS,ioos:station:wmo:42046:1,2009-11-03T21:00:00Z,27.8903,-94.0367,4.0,6.009742091,59.72262495,7.91,'11111222,11111222,11111222' 
TABS,ioos:station:wmo:42046:1,2009-11-03T21:30:00Z,27.8903,-94.0367,4.0,6.558147604,52.74535616,8.32,'11111222,11111222,11111222' 
TABS,ioos:station:wmo:42046:1,2009-11-03T22:00:00Z,27.8903,-94.0367,4.0,6.731715977,44.75894772,9.14,'11111222,11111222,11111222' 
TABS,ioos:station:wmo:42046:1,2009-11-03T22:30:00Z,27.8903,-94.0367,4.0,6.47340714,51.2707471,8.33,'11111222,11111222,11111222' 
TABS,ioos:station:wmo:42046:1,2009-11-03T23:00:00Z,27.8903,-94.0367,4.0,6.422001246,53.16545475,8.86,'11111222,11111222,11111222' 
TABS,ioos:station:wmo:42046:1,2009-11-03T23:30:00Z,27.8903,-94.0367,4.0,6.423363605,49.16617945,8.29,'11111222,11111222,11111222' 
TABS,ioos:station:wmo:42046:1,2009-11-04T00:00:00Z,27.8903,-94.0367,4.0,6.201653005,55.97647987,8.01,'11111222,11111222,11111222' 
TABS,ioos:station:wmo:42046:1,2009-11-04T00:30:00Z,27.8903,-94.0367,4.0,6.458645369,57.71216741,7.82,'11111222,11111222,11111222' 
TABS,ioos:station:wmo:42046:1,2009-11-04T01:00:00Z,27.8903,-94.0367,4.0,6.893047222,62.24497472,8.26,'11111222,11111222,11111222' 
TABS,ioos:station:wmo:42046:1,2009-11-04T01:30:00Z,27.8903,-94.0367,4.0,6.966383567,57.72401024,8.87,'11111222,11111222,11111222' 
TABS,ioos:station:wmo:42046:1,2009-11-04T02:00:00Z,27.8903,-94.0367,4.0,6.719181498,73.12885502,8.48,'11111222,11111222,11111222' 
TABS,ioos:station:wmo:42046:1,2009-11-04T02:30:00Z,27.8903,-94.0367,4.0,6.18190909,66.75236344,7.96,'11111222,11111222,11111222' 
TABS,ioos:station:wmo:42046:1,2009-11-04T03:00:00Z,27.8903,-94.0367,4.0,6.389780904,77.15957293,8.06,'11111222,11111222,11111222' 
TABS,ioos:station:wmo:42046:1,2009-11-04T03:30:00Z,27.8903,-94.0367,4.0,5.961291806,84.1264182,8.57,'11111222,11111222,11111222' 
TABS,ioos:station:wmo:42046:1,2009-11-04T04:00:00Z,27.8903,-94.0367,4.0,5.932832376,84.97128688,7.65,'11111222,11111222,11111222' 
TABS,ioos:station:wmo:42046:1,2009-11-04T04:30:00Z,27.8903,-94.0367,4.0,5.678424077,82.51163674,7.85,'11111222,11111222,11111222' 
TABS,ioos:station:wmo:42046:1,2009-11-04T05:00:00Z,27.8903,-94.0367,4.0,6.074207767,77.06155302,8.33,'11111222,11111222,11111222' 
TABS,ioos:station:wmo:42046:1,2009-11-04T05:30:00Z,27.8903,-94.0367,4.0,5.939427582,85.3641265,7.59,'11111222,11111222,11111222' 
TABS,ioos:station:wmo:42046:1,2009-11-04T06:00:00Z,27.8903,-94.0367,4.0,5.600723168,89.07883548,6.99,'11111222,11111222,11111222' 
TABS,ioos:station:wmo:42046:1,2009-11-04T06:30:00Z,27.8903,-94.0367,4.0,5.750034783,90.19970932,6.93,'11111222,11111222,11111222' 
TABS,ioos:station:wmo:42046:1,2009-11-04T07:00:00Z,27.8903,-94.0367,4.0,5.432982606,88.10097115,7.05,'11111222,11111222,11111222' 
TABS,ioos:station:wmo:42046:1,2009-11-04T07:30:00Z,27.8903,-94.0367,4.0,5.260342194,90.65395507,7.33,'11111222,11111222,11111222' 
TABS,ioos:station:wmo:42046:1,2009-11-04T08:00:00Z,27.8903,-94.0367,4.0,4.762877282,85.78541041,6.07,'11111222,11111222,11111222' 
TABS,ioos:station:wmo:42046:1,2009-11-04T08:30:00Z,27.8903,-94.0367,4.0,4.61289497,73.37175548,5.95,'11111222,11111222,11111222' 
TABS,ioos:station:wmo:42046:1,2009-11-04T09:00:00Z,27.8903,-94.0367,4.0,4.25,61.92715779,6.12,'11111222,11111222,11111222' 
TABS,ioos:station:wmo:42046:1,2009-11-04T09:30:00Z,27.8903,-94.0367,4.0,4.213846224,59.4789538,5.94,'11111222,11111222,11111222' 
TABS,ioos:station:wmo:42046:1,2009-11-04T10:00:00Z,27.8903,-94.0367,4.0,4.830734934,64.49549924,6.38,'11111222,11111222,11111222' 
TABS,ioos:station:wmo:42046:1,2009-11-04T10:30:00Z,27.8903,-94.0367,4.0,4.465254752,60.33434458,6.11,'11111222,11111222,11111222' 
TABS,ioos:station:wmo:42046:1,2009-11-04T11:00:00Z,27.8903,-94.0367,4.0,5.103802504,59.11290519,6.41,'11111222,11111222,11111222' 
TABS,ioos:station:wmo:42046:1,2009-11-04T11:30:00Z,27.8903,-94.0367,4.0,5.268491245,54.8918201,6.86,'11111222,11111222,11111222' 
TABS,ioos:station:wmo:42046:1,2009-11-04T12:00:00Z,27.8903,-94.0367,4.0,5.185759347,49.61409089,6.83,'11111222,11111222,11111222' 
TABS,ioos:station:wmo:42046:1,2009-11-04T12:30:00Z,27.8903,-94.0367,4.0,4.928366869,63.74654146,6.57,'11111222,11111222,11111222' 
TABS,ioos:station:wmo:42046:1,2009-11-04T13:00:00Z,27.8903,-94.0367,4.0,5.15884677,80.62857218,6.83,'11111222,11111222,11111222' 
TABS,ioos:station:wmo:42046:1,2009-11-04T13:30:00Z,27.8903,-94.0367,4.0,5.109099725,79.28350301,6.75,'11111222,11111222,11111222' 
TABS,ioos:station:wmo:42046:1,2009-11-04T14:00:00Z,27.8903,-94.0367,4.0,5.921190759,79.39183694,7.4,'11111222,11111222,11111222' 
TABS,ioos:station:wmo:42046:1,2009-11-04T14:30:00Z,27.8903,-94.0367,4.0,6.052850568,81.73562765,7.63,'11111222,11111222,11111222' 
TABS,ioos:station:wmo:42046:1,2009-11-04T15:00:00Z,27.8903,-94.0367,4.0,5.735477312,73.17598475,7.33,'11111222,11111222,11111222' 
TABS,ioos:station:wmo:42046:1,2009-11-04T15:30:00Z,27.8903,-94.0367,4.0,5.88600034,73.71994395,7.43,'11111222,11111222,11111222' 
TABS,ioos:station:wmo:42046:1,2009-11-04T16:00:00Z,27.8903,-94.0367,4.0,6.220490334,77.37089555,8.65,'11111222,11111222,11111222' 
TABS,ioos:station:wmo:42046:1,2009-11-04T16:30:00Z,27.8903,-94.0367,4.0,6.198144884,71.85699555,7.59,'11111222,11111222,11111222' 
TABS,ioos:station:wmo:42046:1,2009-11-04T17:00:00Z,27.8903,-94.0367,4.0,5.97415266,68.80374729,7.81,'11111222,11111222,11111222' 
TABS,ioos:station:wmo:42046:1,2009-11-04T17:30:00Z,27.8903,-94.0367,4.0,6.083954306,60.02114725,7.25,'11111222,11111222,11111222' 
TABS,ioos:station:wmo:42046:1,2009-11-04T18:00:00Z,27.8903,-94.0367,4.0,5.669188654,56.73004986,7.03,'11111222,11111222,11111222' 
TABS,ioos:station:wmo:42046:1,2009-11-04T18:30:00Z,27.8903,-94.0367,4.0,5.554457669,63.71137843,7.11,'11111222,11111222,11111222' 